Location: Whitin Observatory
(42.2950°N, 71.3033°W)
Time: 22:28:53
(UTC-04:00)

ISS - Visible Passes

Search period start: 22 October 2019 00:00
Search period end: 01 November 2019 00:00
Orbit: 411 x 421 km, 51.6° (Epoch: 23 October)

Date Brightness Start Highest point End Pass type
(mag) Time Alt. Az. Time Alt. Az. Time Alt. Az.
23 Oct -1.2 06:13:26 10° S 06:16:04 21° SE 06:18:41 10° E visible
24 Oct -0.7 05:26:10 10° SSE 05:27:42 13° SE 05:29:14 10° ESE visible
25 Oct -3.2 06:12:09 10° SW 06:15:28 58° SE 06:18:46 10° ENE visible
26 Oct -2.2 05:25:39 24° S 05:26:58 33° SE 05:30:03 10° ENE visible
27 Oct -0.9 04:39:41 17° ESE 04:39:41 17° ESE 04:41:03 10° E visible
27 Oct -3.6 06:12:37 17° WSW 06:15:01 54° NNW 06:18:20 10° NE visible
28 Oct -3.9 05:26:28 85° NE 05:26:28 85° NE 05:29:47 10° NE visible
29 Oct -0.8 04:40:10 17° ENE 04:40:10 17° ENE 04:41:08 10° ENE visible
29 Oct -2.5 06:13:05 19° WNW 06:14:43 28° NNW 06:17:41 10° NE visible
30 Oct -2.6 05:26:41 34° N 05:26:41 34° N 05:29:10 10° NE visible
31 Oct -0.6 04:40:11 13° NE 04:40:11 13° NE 04:40:37 10° NE visible
31 Oct -1.9 06:13:05 15° NW 06:14:31 19° NNW 06:17:03 10° NE visible
